EW5945 Weather Reports


Display with metric or nautical units.
time (UTC)temp
F
wind
direction
speed
MPH
gust
MPH
rain 1hr
in
rain 24hr
in
rain mn
in
humidity
%
barometer
mb
20260905044838 78 226 2.0 2.0 0.00 0.00 0.00 89 1013.5
20260905044338 78 255 2.0 3.0 0.00 0.00 0.00 88 1013.5
20260905043839 78 280 0.0 0.0 0.00 0.00 0.00 88 1012.9
20260905043340 78 203 2.0 3.0 0.00 0.00 0.00 88 1013.2
20260905042838 78 222 2.0 2.0 0.00 0.00 0.00 88 1013.9
20260905042338 78 236 3.0 5.0 0.00 0.00 0.00 88 1013.9
20260905041839 78 213 2.0 2.0 0.00 0.00 0.00 88 1013.5
20260905041338 78 237 0.0 0.0 0.00 0.00 0.00 88 1013.9
20260905040838 78 235 2.0 2.0 0.00 0.00 0.00 88 1014.2
20260905040340 78 282 2.0 3.0 0.00 0.00 0.00 87 1014.9
20260905035839 78 260 2.0 2.0 0.00 0.00 0.00 87 1015.2
20260905035338 78 225 3.0 3.0 0.00 0.00 0.00 87 1015.2
20260905034838 78 217 2.0 2.0 0.00 0.00 0.00 87 1015.6
20260905034338 78 249 2.0 2.0 0.00 0.00 0.00 87 1015.6
20260905033838 78 299 2.0 2.0 0.00 0.00 0.00 87 1015.6
20260905033338 78 274 0.0 2.0 0.00 0.00 0.00 86 1015.9
20260905032839 79 143 2.0 2.0 0.00 0.00 0.00 86 1015.9
20260905032339 79 350 0.0 3.0 0.00 0.00 0.00 85 1016.3
20260905031838 79 136 5.0 5.0 0.00 0.00 0.00 86 1016.3
20260905031338 79 103 2.0 2.0 0.00 0.00 0.00 86 1016.3
20260905030839 79 96 3.0 5.0 0.00 0.00 0.00 86 1016.6
20260905030338 79 55 6.0 14.0 0.00 0.00 0.00 86 1016.6
20260905025839 80 24 5.0 10.0 0.00 0.00 0.00 86 1016.9
20260905025339 80 71 11.0 17.0 0.00 0.00 0.00 86 1016.9
20260905024839 80 76 8.0 10.0 0.00 0.00 0.00 88 1016.9
20260905024339 81 14 11.0 14.0 0.00 0.00 0.00 93 1016.6
20260905023839 81 50 13.0 14.0 0.00 0.00 0.00 96 1016.3
20260905023338 81 288 0.0 0.0 0.00 0.00 0.00 95 1015.6
20260905022838 81 283 0.0 2.0 0.00 0.00 0.00 95 1015.6
20260905022338 81 318 0.0 0.0 0.00 0.00 0.00 95 1015.6
20260905021838 81 307 0.0 2.0 0.00 0.00 0.00 95 1015.6
20260905021338 81 264 3.0 3.0 0.00 0.00 0.00 95 1015.6
20260905020838 81 330 0.0 0.0 0.00 0.00 0.00 95 1015.9
20260905020338 81 327 0.0 0.0 0.00 0.00 0.00 95 1015.9
20260905015838 81 307 0.0 0.0 0.00 0.00 0.00 94 1015.9
20260905015338 81 347 0.0 0.0 0.00 0.00 0.00 94 1015.6
20260905014838 81 349 0.0 0.0 0.00 0.00 0.00 94 1015.6
20260905014340 81 329 0.0 0.0 0.00 0.00 0.00 94 1015.6
20260905013838 81 238 2.0 3.0 0.00 0.00 0.00 94 1015.2
20260905013338 82 283 0.0 0.0 0.00 0.00 0.00 93 1015.2
20260905012839 82 306 0.0 0.0 0.00 0.00 0.00 93 1015.2
20260905012339 82 195 2.0 2.0 0.00 0.00 0.00 93 1015.2
20260905011838 82 253 3.0 3.0 0.00 0.00 0.00 93 1014.9
20260905011338 82 315 0.0 0.0 0.00 0.00 0.00 92 1014.6
20260905010838 82 229 0.0 0.0 0.00 0.00 0.00 92 1014.6
20260905010338 82 233 2.0 3.0 0.00 0.00 0.00 92 1014.6
20260905005838 82 228 3.0 3.0 0.00 0.00 0.00 91 1014.6
20260905005338 83 252 0.0 2.0 0.00 0.00 0.00 91 1014.6
20260905004838 83 66 2.0 3.0 0.00 0.00 0.00 91 1014.2
20260905004338 83 238 3.0 3.0 0.00 0.00 0.00 90 1014.2
20260905003838 83 267 2.0 3.0 0.00 0.00 0.00 90 1014.2
20260905003338 83 260 2.0 2.0 0.00 0.00 0.00 90 1014.2
20260905002838 83 224 2.0 3.0 0.00 0.00 0.00 89 1013.9
20260905002338 83 217 5.0 7.0 0.00 0.00 0.00 89 1014.2
20260905001838 83 225 2.0 2.0 0.00 0.00 0.00 89 1013.9
20260905001340 83 182 2.0 3.0 0.00 0.00 0.00 88 1013.9
20260905000840 84 271 2.0 3.0 0.00 0.00 0.00 88 1013.9
20260905000340 84 277 0.0 0.0 0.00 0.00 0.00 87 1013.9
20260904235838 84 222 2.0 2.0 0.00 0.00 0.00 87 1013.9
20260904235338 84 266 2.0 2.0 0.00 0.00 0.00 86 1013.9
20260904234839 84 278 2.0 2.0 0.00 0.00 0.00 86 1013.9
20260904234339 85 250 2.0 2.0 0.00 0.00 0.00 86 1013.9
20260904233838 85 271 0.0 0.0 0.00 0.00 0.00 85 1013.9
20260904233338 85 256 0.0 2.0 0.00 0.00 0.00 84 1013.9
20260904232838 86 236 2.0 2.0 0.00 0.00 0.00 84 1013.9
20260904232338 86 243 2.0 2.0 0.00 0.00 0.00 83 1013.5
20260904231839 86 12 0.0 0.0 0.00 0.00 0.00 83 1013.5
20260904231339 87 213 2.0 2.0 0.00 0.00 0.00 81 1013.5
20260904230839 87 274 2.0 2.0 0.00 0.00 0.00 81 1013.5
20260904230339 87 256 3.0 3.0 0.00 0.00 0.00 80 1013.5
20260904225840 87 221 3.0 3.0 0.00 0.00 0.00 79 1013.5
20260904225338 88 271 2.0 3.0 0.00 0.00 0.00 78 1013.5
20260904224838 88 216 3.0 10.0 0.00 0.00 0.00 78 1013.5
20260904224339 89 109 2.0 3.0 0.00 0.00 0.00 77 1013.5
20260904223839 89 245 2.0 5.0 0.00 0.00 0.00 77 1013.5
20260904223338 89 271 0.0 2.0 0.00 0.00 0.00 77 1013.5
20260904222839 89 75 2.0 2.0 0.00 0.00 0.00 78 1013.5
20260904222339 89 219 3.0 5.0 0.00 0.00 0.00 75 1013.5
20260904221838 90 225 6.0 7.0 0.00 0.00 0.00 76 1013.5
20260904221338 90 183 2.0 2.0 0.00 0.00 0.00 77 1013.5
20260904220838 90 170 3.0 3.0 0.00 0.00 0.00 77 1013.5
20260904220338 90 240 2.0 2.0 0.00 0.00 0.00 76 1013.5
20260904215838 91 190 3.0 5.0 0.00 0.00 0.00 75 1013.5
20260904215338 91 222 3.0 10.0 0.00 0.00 0.00 75 1013.5
20260904214838 91 236 5.0 5.0 0.00 0.00 0.00 76 1013.5
20260904214341 92 234 5.0 5.0 0.00 0.00 0.00 75 1013.5
20260904213839 92 227 6.0 7.0 0.00 0.00 0.00 75 1013.5
20260904213338 92 71 2.0 2.0 0.00 0.00 0.00 75 1013.2
20260904212838 92 277 2.0 3.0 0.00 0.00 0.00 76 1013.2
20260904212339 92 208 2.0 2.0 0.00 0.00 0.00 74 1013.2
20260904211839 93 201 2.0 3.0 0.00 0.00 0.00 75 1013.2
20260904211338 93 204 2.0 2.0 0.00 0.00 0.00 73 1013.2
20260904210838 94 201 2.0 3.0 0.00 0.00 0.00 72 1013.2
20260904210338 93 89 2.0 3.0 0.00 0.00 0.00 72 1013.2
20260904205839 95 226 3.0 5.0 0.00 0.00 0.00 70 1013.2
20260904205338 95 206 3.0 5.0 0.00 0.00 0.00 65 1013.2
20260904204839 95 197 6.0 7.0 0.00 0.00 0.00 64 1013.2
20260904204338 94 210 10.0 10.0 0.00 0.00 0.00 64 1013.5
20260904203838 95 301 3.0 5.0 0.00 0.00 0.00 64 1013.5
20260904203339 95 264 2.0 5.0 0.00 0.00 0.00 65 1013.5
20260904202839 95 253 5.0 10.0 0.00 0.00 0.00 63 1013.9
20260904202338 93 285 2.0 2.0 0.00 0.00 0.00 67 1013.9
20260904201839 94 247 3.0 3.0 0.00 0.00 0.00 65 1013.9
20260904201338 94 227 5.0 5.0 0.00 0.00 0.00 66 1014.2
20260904200838 95 238 5.0 5.0 0.00 0.00 0.00 64 1014.2
20260904200339 95 208 3.0 3.0 0.00 0.00 0.00 64 1014.2
20260904195839 96 321 2.0 3.0 0.00 0.00 0.00 70 1014.6
20260904195338 94 248 5.0 10.0 0.00 0.00 0.00 64 1014.6
20260904194838 94 204 5.0 5.0 0.00 0.00 0.00 65 1014.6
20260904194339 94 213 5.0 7.0 0.00 0.00 0.00 65 1014.6
20260904193839 94 281 3.0 3.0 0.00 0.00 0.00 66 1014.9
20260904193339 94 275 3.0 5.0 0.00 0.00 0.00 64 1014.9
20260904192838 95 234 8.0 9.0 0.00 0.00 0.00 63 1014.9
20260904192338 95 254 3.0 9.0 0.00 0.00 0.00 67 1014.9
20260904191838 93 254 2.0 2.0 0.00 0.00 0.00 67 1014.9
20260904191339 94 221 3.0 5.0 0.00 0.00 0.00 66 1015.2
20260904190841 94 205 3.0 5.0 0.00 0.00 0.00 68 1015.2
20260904190338 94 243 5.0 7.0 0.00 0.00 0.00 66 1015.2
20260904185843 94 308 3.0 3.0 0.00 0.00 0.00 65 1015.2
20260904185339 95 228 5.0 5.0 0.00 0.00 0.00 66 1015.2
20260904184838 93 278 3.0 7.0 0.00 0.00 0.00 66 1015.6
20260904184338 94 217 3.0 5.0 0.00 0.00 0.00 67 1015.2
20260904183839 94 227 5.0 5.0 0.00 0.00 0.00 68 1015.6
20260904183338 93 269 3.0 7.0 0.00 0.00 0.00 67 1015.6
20260904182839 93 184 2.0 5.0 0.00 0.00 0.00 65 1015.6
20260904182338 94 227 3.0 5.0 0.00 0.00 0.00 67 1015.9
20260904181839 93 321 2.0 7.0 0.00 0.00 0.00 69 1015.9
20260904181339 92 219 6.0 10.0 0.00 0.00 0.00 68 1015.9
20260904180838 92 227 6.0 7.0 0.00 0.00 0.00 70 1015.9
20260904180339 93 300 2.0 5.0 0.00 0.00 0.00 69 1016.3
20260904175839 92 254 3.0 5.0 0.00 0.00 0.00 71 1016.3
20260904175338 92 266 5.0 7.0 0.00 0.00 0.00 70 1016.3
20260904174839 93 217 6.0 7.0 0.00 0.00 0.00 68 1016.3
20260904174339 93 234 5.0 7.0 0.00 0.00 0.00 70 1016.3
20260904173838 91 223 2.0 5.0 0.00 0.00 0.00 69 1016.3
20260904173339 91 221 3.0 9.0 0.00 0.00 0.00 71 1016.3
20260904172838 91 240 6.0 7.0 0.00 0.00 0.00 70 1016.3
20260904172341 91 201 6.0 12.0 0.00 0.00 0.00 72 1016.3
20260904171839 91 221 3.0 5.0 0.00 0.00 0.00 71 1016.3
20260904171338 90 260 5.0 5.0 0.00 0.00 0.00 70 1016.3
20260904170839 90 220 5.0 10.0 0.00 0.00 0.00 73 1016.6
20260904170338 89 205 3.0 7.0 0.00 0.00 0.00 72 1016.3
20260904165838 90 182 6.0 7.0 0.00 0.00 0.00 73 1016.6
20260904165339 90 236 6.0 7.0 0.00 0.00 0.00 73 1016.6
20260904164841 89 202 3.0 3.0 0.00 0.00 0.00 75 1016.6
20260904164338 89 215 3.0 10.0 0.00 0.00 0.00 76 1016.6
20260904163839 89 179 3.0 5.0 0.00 0.00 0.00 78 1016.6
20260904163338 89 211 6.0 9.0 0.00 0.00 0.00 75 1016.6
20260904162841 89 299 2.0 10.0 0.00 0.00 0.00 77 1016.6
20260904162339 88 269 5.0 7.0 0.00 0.00 0.00 77 1016.9
20260904161838 88 334 10.0 10.0 0.00 0.00 0.00 79 1016.9
20260904161338 88 228 6.0 7.0 0.00 0.00 0.00 78 1016.9
20260904160841 88 225 3.0 12.0 0.00 0.00 0.00 80 1016.9
20260904160339 88 250 6.0 10.0 0.00 0.00 0.00 79 1017.3
20260904155839 87 247 5.0 9.0 0.00 0.00 0.00 80 1016.9
20260904155341 87 206 3.0 5.0 0.00 0.00 0.00 80 1017.3
20260904154839 87 242 6.0 7.0 0.00 0.00 0.00 80 1017.3
20260904154341 87 224 5.0 5.0 0.00 0.00 0.00 81 1016.9
20260904153838 87 238 6.0 7.0 0.00 0.00 0.00 81 1017.3
20260904153338 87 220 3.0 3.0 0.00 0.00 0.00 81 1017.3
20260904152839 87 251 5.0 9.0 0.00 0.00 0.00 82 1017.3
20260904152339 87 327 3.0 5.0 0.00 0.00 0.00 82 1017.3
20260904151839 86 247 3.0 3.0 0.00 0.00 0.00 84 1017.3
20260904151339 86 234 3.0 5.0 0.00 0.00 0.00 86 1017.3
20260904150839 86 297 5.0 5.0 0.00 0.00 0.00 85 1017.6
20260904150338 86 238 3.0 3.0 0.00 0.00 0.00 85 1017.6
20260904145840 86 244 5.0 7.0 0.00 0.00 0.00 86 1017.6
20260904145338 86 207 3.0 3.0 0.00 0.00 0.00 87 1017.3
20260904144839 85 249 3.0 5.0 0.00 0.00 0.00 87 1017.6
20260904141838 84 216 5.0 9.0 0.00 0.00 0.00 89 1017.3
20260904141338 83 255 5.0 5.0 0.00 0.00 0.00 90 1017.3
20260904140838 83 266 6.0 7.0 0.00 0.00 0.00 90 1017.3
20260904140338 83 248 3.0 5.0 0.00 0.00 0.00 91 1017.3
20260904135843 83 269 2.0 3.0 0.00 0.00 0.00 92 1017.3
20260904135340 82 231 5.0 5.0 0.00 0.00 0.00 92 1017.3
20260904134838 82 286 3.0 5.0 0.00 0.00 0.00 93 1017.3
20260904134339 82 292 5.0 5.0 0.00 0.00 0.00 93 1017.3
20260904133839 82 191 5.0 7.0 0.00 0.00 0.00 94 1016.9
20260904133339 81 187 3.0 5.0 0.00 0.00 0.00 95 1016.9
20260904132840 81 255 3.0 5.0 0.00 0.00 0.00 97 1016.9
20260904132339 80 244 2.0 2.0 0.00 0.00 0.00 99 1016.9
20260904131839 80 216 2.0 7.0 0.00 0.00 0.00 100 1016.9
20260904131338 80 208 2.0 3.0 0.00 0.00 0.00 100 1017.3
20260904130839 79 254 3.0 5.0 0.00 0.00 0.00 100 1016.9
20260904130339 79 278 5.0 9.0 0.00 0.00 0.00 100 1017.3
20260904125839 79 175 3.0 5.0 0.00 0.00 0.00 100 1016.9
20260904125339 79 216 3.0 3.0 0.00 0.00 0.00 100 1016.9
20260904124839 78 214 3.0 5.0 0.00 0.00 0.00 100 1017.3
20260904124338 78 218 2.0 5.0 0.00 0.00 0.00 100 1017.3
20260904123839 78 243 3.0 5.0 0.00 0.00 0.00 100 1017.3
20260904123338 78 246 3.0 5.0 0.00 0.00 0.00 100 1016.9
20260904122840 78 241 3.0 3.0 0.00 0.00 0.00 100 1016.9
20260904122339 77 251 2.0 5.0 0.00 0.00 0.00 100 1016.9
20260904121838 77 251 2.0 5.0 0.00 0.00 0.00 100 1016.9
20260904121340 77 261 2.0 3.0 0.00 0.00 0.00 100 1016.9
20260904120838 77 233 0.0 2.0 0.00 0.00 0.00 100 1016.9
20260904120338 77 255 2.0 3.0 0.00 0.00 0.00 100 1016.9
20260904115838 76 244 2.0 2.0 0.00 0.00 0.00 100 1016.9
20260904115338 76 239 2.0 2.0 0.00 0.00 0.00 100 1016.9
20260904114838 76 262 2.0 3.0 0.00 0.00 0.00 100 1016.9
20260904114338 76 253 2.0 2.0 0.00 0.00 0.00 100 1016.9
20260904113838 76 253 0.0 2.0 0.00 0.00 0.00 100 1016.9
20260904113339 76 280 2.0 2.0 0.00 0.00 0.00 100 1016.9
20260904112838 76 248 3.0 3.0 0.00 0.00 0.00 100 1016.9
20260904112338 75 267 0.0 2.0 0.00 0.00 0.00 100 1016.9
20260904111839 75 270 0.0 0.0 0.00 0.00 0.00 100 1017.3
20260904111339 75 269 0.0 0.0 0.00 0.00 0.00 100 1017.3
20260904110838 75 245 2.0 2.0 0.00 0.00 0.00 100 1017.3
20260904110338 75 256 0.0 0.0 0.00 0.00 0.00 100 1016.9
20260904105838 76 242 2.0 2.0 0.00 0.00 0.00 100 1016.9
20260904105338 75 294 0.0 0.0 0.00 0.00 0.00 100 1016.9
20260904104839 75 294 0.0 0.0 0.00 0.00 0.00 100 1016.9
20260904104338 75 297 0.0 0.0 0.00 0.00 0.00 100 1016.6
20260904103838 75 297 0.0 0.0 0.00 0.00 0.00 100 1016.6
20260904103338 75 300 0.0 0.0 0.00 0.00 0.00 100 1016.6
20260904102842 75 280 0.0 0.0 0.00 0.00 0.00 100 1016.6
20260904102338 75 281 0.0 0.0 0.00 0.00 0.00 100 1016.6
20260904101838 75 284 0.0 0.0 0.00 0.00 0.00 100 1016.6
20260904101338 75 280 2.0 2.0 0.00 0.00 0.00 100 1016.6
20260904100838 75 281 0.0 0.0 0.00 0.00 0.00 100 1016.3
20260904100339 75 282 0.0 0.0 0.00 0.00 0.00 100 1016.6
20260904095838 76 276 0.0 0.0 0.00 0.00 0.00 100 1016.6
20260904095339 76 274 0.0 0.0 0.00 0.00 0.00 100 1016.3
20260904094840 76 268 0.0 0.0 0.00 0.00 0.00 100 1016.6
20260904094338 76 270 0.0 0.0 0.00 0.00 0.00 100 1016.3
20260904093838 76 284 0.0 0.0 0.00 0.00 0.00 100 1016.3
20260904093340 76 287 0.0 0.0 0.00 0.00 0.00 100 1016.3
20260904092838 76 285 0.0 0.0 0.00 0.00 0.00 100 1016.6
20260904092338 76 316 0.0 0.0 0.00 0.00 0.00 100 1016.6
20260904091838 76 317 0.0 0.0 0.00 0.00 0.00 100 1016.3
20260904091339 76 317 0.0 0.0 0.00 0.00 0.00 100 1016.3
20260904090839 76 317 0.0 0.0 0.00 0.00 0.00 100 1016.3
20260904090339 76 317 0.0 0.0 0.00 0.00 0.00 100 1016.3
20260904085838 76 317 0.0 0.0 0.00 0.00 0.00 100 1016.3
20260904085338 76 286 0.0 0.0 0.00 0.00 0.00 100 1016.3
20260904084839 76 286 0.0 0.0 0.00 0.00 0.00 100 1016.3
20260904084338 76 286 0.0 0.0 0.00 0.00 0.00 100 1016.3
20260904083838 76 286 0.0 0.0 0.00 0.00 0.00 100 1016.3
20260904083339 76 283 0.0 0.0 0.00 0.00 0.00 100 1016.3
20260904082838 76 275 0.0 0.0 0.00 0.00 0.00 100 1016.6
20260904082339 76 276 0.0 0.0 0.00 0.00 0.00 100 1016.3
20260904081839 76 303 0.0 0.0 0.00 0.00 0.00 100 1016.3
20260904081339 76 304 0.0 0.0 0.00 0.00 0.00 100 1016.3
20260904080840 76 270 0.0 0.0 0.00 0.00 0.00 100 1016.6
20260904080339 76 317 0.0 0.0 0.00 0.00 0.00 100 1016.6
20260904075849 76 291 0.0 0.0 0.00 0.00 0.00 100 1016.6
20260904075340 76 275 0.0 2.0 0.00 0.00 0.00 100 1016.6
20260904074839 76 288 0.0 0.0 0.00 0.00 0.00 100 1016.6
20260904074338 77 288 0.0 0.0 0.00 0.00 0.00 100 1016.6
20260904073838 77 322 0.0 0.0 0.00 0.00 0.00 100 1016.6
20260904073340 77 325 0.0 0.0 0.00 0.00 0.00 100 1016.6
20260904072841 77 291 0.0 0.0 0.00 0.00 0.00 100 1016.6
20260904072338 77 288 0.0 0.0 0.00 0.00 0.00 100 1016.6
20260904071839 77 280 0.0 2.0 0.00 0.00 0.00 100 1016.6
20260904071338 77 273 0.0 2.0 0.00 0.00 0.00 100 1016.6
20260904070840 77 310 0.0 0.0 0.00 0.00 0.00 100 1016.6
20260904070338 77 311 0.0 0.0 0.00 0.00 0.00 100 1016.6
20260904065840 77 300 0.0 0.0 0.00 0.00 0.00 100 1016.6
20260904065339 77 294 0.0 0.0 0.00 0.00 0.00 100 1016.6
20260904064838 77 288 0.0 0.0 0.00 0.00 0.00 100 1016.6
20260904064339 77 278 0.0 0.0 0.00 0.00 0.00 100 1016.6
20260904063838 77 280 0.0 0.0 0.00 0.00 0.00 100 1016.9
20260904063339 77 238 3.0 3.0 0.00 0.00 0.00 100 1016.9
20260904062839 77 295 0.0 0.0 0.00 0.00 0.00 100 1016.9
20260904062339 77 326 0.0 0.0 0.00 0.00 0.00 100 1016.9
20260904061841 77 336 0.0 0.0 0.00 0.00 0.00 100 1016.9
20260904061338 78 338 0.0 0.0 0.00 0.00 0.00 100 1016.9
20260904060839 78 338 0.0 0.0 0.00 0.00 0.00 100 1016.9
20260904060339 78 259 0.0 0.0 0.00 0.00 0.00 100 1016.9
20260904055838 78 278 2.0 2.0 0.00 0.00 0.00 100 1016.9
20260904055338 78 260 0.0 0.0 0.00 0.00 0.00 100 1016.9
20260904054838 78 257 2.0 2.0 0.00 0.00 0.00 100 1016.9
20260904054340 78 287 0.0 2.0 0.00 0.00 0.00 100 1017.3
20260904053839 78 269 0.0 0.0 0.00 0.00 0.00 100 1016.9
20260904053339 78 287 0.0 0.0 0.00 0.00 0.00 100 1017.3
20260904052838 78 282 0.0 0.0 0.00 0.00 0.00 99 1017.3
20260904052339 78 276 0.0 0.0 0.00 0.00 0.00 99 1017.3
20260904051838 78 274 0.0 0.0 0.00 0.00 0.00 99 1017.3
20260904051338 78 254 2.0 2.0 0.00 0.00 0.00 99 1017.3
20260904050839 78 287 0.0 0.0 0.00 0.00 0.00 99 1017.6
20260904050338 78 286 0.0 0.0 0.00 0.00 0.00 99 1017.6
20260904045838 78 281 0.0 0.0 0.00 0.00 0.00 99 1017.6
20260904045338 78 283 0.0 2.0 0.00 0.00 0.00 99 1017.6